www.pogodaiklimat.ru

Погода и климат >> Архив погоды >> Иран >> Кехнудж


ПОГОДА в Кехнудже

  • Прогноз погоды в Кехнудже
  • Монитор погоды в Кехнудже

АРХИВ ПОГОДЫ в Кехнудже

Время (UTC), дата Ветер
(напр.,м/с)
 
Видим.   Явления Облачность Т
(С)
Тd
(С)
f
(%)
Тe
(С)
Тes
(С)
Комфортность P
(гПа)
Po
(гПа)
Тmin
(С)
Tmax
(С)
R
(мм)
R24
(мм)
S
(см)
15 11.02 штиль 0 10 км 10/4 1350 м
[Sc As op]
+14.9 +11.6 81 +15 +15 1012.0 957.9 +17.9
18 11.02 штиль 0 10 км {дождь} 10/5 600 м
[Frnb As op]
+14.2 +12.5 90 +14 +14 1011.5 957.4 1
21 11.02 З 4 10 км 10/4 1200 м
[Sc diur, vesp As op]
+13.6 +12.1 91 +12 +12 1009.6 955.6
00 12.02 штиль 0 10 км слаб. дождь 10/4 1200 м
[Sc As op]
+13.3 +12.5 95 +13 +13 1007.7 953.7 3
03 12.02 В 2 9000 м слаб. дождь 10/4 1050 м
[Sc As op]
+12.8 +12.3 97 +12 +12 1006.7 952.6 +12.7
06 12.02 СЗ 3 5000 м сильн. дождь 10/4 900 м
[Cb calv As op]
+12.8 +12.7 99 +11 +12 1008.1 953.8 20
09 12.02 штиль 0 10 км {дождь} 10/4 1200 м
[Sc diur, vesp As op]
+14.0 +14.0 100 +13 +15 1006.3 952.2
12 12.02 З 5 10 км {дождь} 4/4 1200 м
[Sc diur, vesp]
+19.4 +18.5 95 +21 +22 комфорт 1004.2 950.9 8
15 12.02 ЮЗ 5 10 км 6/3 1200 м
[Sc diur, vesp As op]
+16.0 +8.6 61 +15 +15 1008.2 954.1 +19.4
18 12.02 ЮЗ 5 8000 м слаб. дождь 10/3 1200 м
[Sc diur, vesp As op]
+14.5 +10.8 78 +13 +13 1011.5 957.0 0.5
21 12.02 З 3 10 км {дождь} 4/4 1200 м
[Sc diur, vesp]
+13.4 +10.5 83 +12 +12 1012.1 957.6
00 13.02 штиль 0 10 км {дождь} 4/4 1200 м
[Sc diur, vesp]
+10.9 +9.3 90 +10 +10 1013.2 958.9 0.4
03 13.02 штиль 0 10 км ясно +8.8 +8.2 96 +8 +8 1016.6 961.6 +8.0
06 13.02 ЮВ 3 10 км 1/1 1200 м
[Cu hum]
+14.9 +13.0 88 +14 +21 1018.2 963.6
09 13.02 ЮВ 3 10 км 3/3 1200 м
[Cu hum]
+17.2 +7.7 54 +17 +24 1017.7 963.2
12 13.02 ЮВ 5 10 км 3/3 1200 м
[Cu hum]
+18.1 +7.3 49 +18 +19 1016.7 962.1
15 13.02 ЮВ 3 10 км ясно +14.8 +7.2 60 +14 +14 1018.1 962.9 +18.1
18 13.02 штиль 0 10 км ясно +11.5 +5.7 68 +11 +11 1018.9 963.9
21 13.02 штиль 0 10 км ясно +10.2 +5.4 72 +10 +10 1017.7 962.9
00 14.02 штиль 0 10 км ясно +7.5 +5.0 84 +7 +7 1017.2 962.2
03 14.02 штиль 0 10 км ясно +6.6 +5.2 91 +6 +6 1017.7 962.3 +6.6
06 14.02 В 2 10 км ясно +14.1 +9.0 71 +14 +22 1019.0 964.0
09 14.02 штиль 0 10 км ясно +17.8 +6.1 46 +18 +34 опасность
простуды
1017.1 962.3
12 14.02 В 2 10 км ясно +19.5 +6.2 42 +21 +24 комфорт 1015.1 960.4
15 14.02 штиль 0 10 км ясно +16.1 +6.9 54 +16 +16 1016.2 961.0 +19.6
18 14.02 СЗ 2 10 км ясно +13.0 +7.8 71 +12 +12 1016.0 961.3
21 14.02 СВ 2 10 км ясно +9.9 +7.5 85 +8 +8 1016.0 961.3
00 15.02 штиль 0 10 км ясно +8.8 +7.3 90 +8 +8 1015.1 960.5
03 15.02 штиль 0 10 км ясно +8.5 +7.3 92 +8 +8 1016.7 961.7 +7.9
06 15.02 штиль 0 10 км 4/0
[Ac trans]
+15.0 +11.0 77 +15 +24 1018.0 963.3
09 15.02 В 2 10 км 5/0
[Ac und]
+18.6 +7.0 47 +19 +27 1016.2 961.6
12 15.02 штиль 0 10 км 6/3 1200 м
[Sc diur, vesp Ac und]
+20.8 +6.9 41 +22 +23 комфорт 1013.4 959.0
15 15.02 штиль 0 10 км 8/3 1200 м
[Sc diur, vesp As op]
+18.5 +8.7 53 +19 +19 1015.1 960.4 +21.4
18 15.02 штиль 0 10 км 9/3 1200 м
[Sc diur, vesp As op]
+17.5 +9.7 60 +18 +18 1014.8 960.7
21 15.02 З 4 10 км слаб. дождь 9/3 1200 м
[Sc diur, vesp As op]
+15.0 +9.3 69 +14 +14 1014.8 960.7
00 16.02 штиль 0 10 км слаб. дождь 10/3 1200 м
[Sc diur, vesp As op]
+14.2 +9.7 74 +14 +14 1012.8 959.0 0.6
03 16.02 СЗ 2 10 км слаб. дождь 9/3 600 м
[Frnb As op]
+15.1 +11.6 80 +15 +15 1013.2 959.3 +13.6
06 16.02 штиль 0 10 км {дождь} 10/3 1200 м
[Cb calv As trans]
+15.8 +13.0 83 +16 +19 1014.4 960.4 0.9
09 16.02 ЮЗ 2 10 км 10/1 1200 м
[Cu Sc Ac As Cs]
+18.6 +12.6 68 +20 +25 1012.6 958.8
12 16.02 ЮЗ 3 10 км 8/0 2000 м
[Ac inh Ci sp]
+22.8 +9.0 41 +24 +26 комфорт 1010.1 956.6
15 16.02 СЗ 2 10 км {дождь} 10/1 900 м
[Frnb Ac As Cs]
+18.1 +11.5 65 +19 +19 1010.8 956.9 +22.8
18 16.02 Ю 4 10 км слаб. дождь 6/5 900 м
[Cu Sc Ac As Ci sp]
+17.0 +12.7 76 +17 +17 1013.3 959.3 0.3
06 17.02 ЮЗ 5 10 км 9/3 1200 м
[Sc Ac As]
+17.7 +13.7 77 +17 +19 1011.5 957.8
09 17.02 З 7 10 км 6/4 1050 м
[Cb calv Ac As]
+20.7 +14.6 68 +23 +25 комфорт 1008.9 955.5
12 17.02 ЮЗ 9 10 км 5/4 1200 м
[Cb calv Ci sp]
+21.5 +13.4 60 +24 +24 комфорт 1005.5 952.3
15 17.02 ЮЗ 10 10 км 3/3 1200 м
[Sc diur, vesp]
+18.9 +12.8 68 +19 +19 1006.3 952.7 +21.8
18 17.02 З 6 10 км ясно +17.2 +12.3 73 +16 +16 1007.3 953.8
21 17.02 ЮЗ 5 10 км ясно +16.6 +12.6 77 +16 +16 1006.6 953.3
00 18.02 ЮЗ 4 10 км ясно +15.5 +12.7 83 +15 +15 1006.3 953.1
03 18.02 штиль 0 10 км 4/4 1200 м
[Sc]
+15.3 +11.6 79 +15 +15 1007.8 954.2 +15.1
06 18.02 З 5 10 км 3/3 1350 м
[Sc]
+18.5 +13.2 71 +19 +22 1008.9 955.4
09 18.02 З 4 10 км 4/4 1350 м
[Sc]
+21.4 +8.8 44 +23 +28 комфорт 1007.0 953.7

 

Местоположение метеостанции Кехнудж (Иран): широта 27.97 долгота 57.70 высота над уровнем моря 470 м.

В архиве по умолчанию представлена погода в Кехнудже за последнюю неделю. Архивные данные за месяц целиком и за предыдущие месяцы, начиная с января 2011 года, Вы можете получить, выбрав интересующий диапазон дат из раскрывающегося списка и нажав кнопку "Ввод!".


*Определитесь, кто Вы:
робот инопланетянин человек

Внимание! Время в таблицах - всемирное. Для получения местного времени необходимо прибавить поправку, которая равна 3.5 ч.

Смотрите также архив погоды в соседних городах и на ближайших метеорологических станциях:

Погода в Баме (Иран) (143 км)
Погода в Бендер-Аббасе (Иран) (155 км)
Погода в Бафте (Иран) (178 км)
Погода в Эль-Хасабе (Оман) (243 км)
Погода в Эль-Хасаб аэропорту (Оман) (248 км)
Погода в Сирджане (Иран) (255 км)
Погода в Джаске (Иран) (260 км)
Погода в Кермане (Иран) (263 км)
Погода в Дибе (Оман) (298 км)
Погода в Ираншехре (Иран) (308 км)

Пояснения к столбцам:

Ветер - указаны скорость ветра в м/с - средняя за 10 мин, порывы в срок и между сроками (в фигурных скобках) и направление, откуда дует ветер: С - северный, СВ - северо-восточный, В - восточный, ЮВ - юго-восточный, Ю - южный, ЮЗ - юго-западный, З - западный, СЗ - северо-западный.
Видимость - горизонтальная дальность видимости в метрах или километрах. При видимости от 1 до 10 км при отсутствии осадков обычно наблюдается дымка, при ухудшении видимости до 1 км и менее - туман. В сухую погоду видимость может ухудшаться дымом, пылью или мглою.
Явления - указаны атмосферные явления, наблюдавшиеся в срок или в последний час перед сроком; фигурными скобками обозначены явления, наблюдавшиеся между сроками (за 1-3 часа до срока); квадратными скобками обозначены град или гололедные отложения с указанием их диаметра в мм.
Облачность - указаны через наклонную черту общая и нижняя облачность в баллах и высота нижней границы облаков в метрах; квадратными скобками обозначены формы облаков: Ci - перистые, Cs - перисто-слоистые, Cc - перисто-кучевые, Ac - высококучевые, As - высокослоистые, Sc - слоисто-кучевые, Ns - слоисто-дождевые, Cu - кучевые, Cb - кучево-дождевые. Подробнее классификацию облаков см. в Атласе облаков (PDF).
T - Температура воздуха - температура, измеренная на высоте 2 м над землей.
Td - Температура точки росы - температура, при понижении до которой содержащийся в воздухе водяной пар достигнет насыщения.
f - Относительная влажность воздуха - влажноcть воздуха, измеренная на высоте 2 м над землей.
Te - Эффективная температура - температура, которую ощущает одетый по сезону человек в тени. Характеристика душности погоды. При расчете учитывается влияние влажности воздуха и скорости ветра на теплоощущения человека.
Tes - Эффективная температура на солнце - температура, которую ощущает человек, с поправкой на солнечный нагрев. Характеристика знойности погоды. Зависит от высоты солнца над горизонтом, облачности и скорости ветра. Ночью, в пасмурную погоду, а также при ветре 12 м/с и более поправка равна нулю.
P - Атмосферное давление - приведенное к уровню моря атмосферное давление.
Po - Атмосферное давление - измеренное на уровне метеостанции атмосферное давление.
Tmin - Минимальная температура - минимум температуры воздуха на высоте 2 м над землей.
Tmax - Максимальная температура - максимум температуры воздуха на высоте 2 м над землей.
R - Количество осадков - Количество выпавших осадков за период времени, мм. При наведении курсора мыши на число - период времени, за который выпало указанное количество осадков.
R24 - Количество осадков - Количество выпавших осадков за 24 часа, мм.
S - Снежный покров - Высота снежного покрова, см. При наведении курсора мыши на число - состояние снежного покрова и степень покрытия местности в баллах.